Temp
22 20 20 19 19 19 19 19 19 20 20 19 19 18 19 19 19 20 20 20 19 19 19 19 19 19 19 19 19 19 19 19 19 19 19 19 19 20 20 20 20 19 19
23 20 19 19 19 20 19 19 19 20 19 19 19 19 18 18 19 19 19 19 19 19 18 18 18 18 18 18 18 19 19 19 19 20 20 19 19 19 20 19 19 19 19
23 21 19 19 19 20 19 19 20 20 19 19 19 19 18 19 19 19 19 19 19 18 18 18 18 18 18 18 18 19 19 19 19 20 20 19 18 19 19 19 19 19 18
22 21 20 19 19 19 19 19 19 19 19 19 19 19 18 18 19 19 19 19 18 18 18 18 18 18 17 18 18 19 19 20 20 20 20 21 19 18 19 19 18 18 18
22 22 20 19 19 19 19 19 19 19 19 19 19 18 18 18 17 18 18 18 18 18 19 18 18 17 17 18 18 19 19 20 20 20 20 20 19 18 18 19 19 19 19
22 20 20 19 19 19 19 19 19 19 19 18 19 18 18 17 17 17 18 18 18 18 18 18 17 17 18 18 18 18 19 20 20 20 20 19 18 18 18 19 19 19 18
20 20 19 19 19 19 19 19 19 19 19 18 18 18 17 17 16 17 18 18 18 18 17 17 17 17 18 18 18 18 19 20 20 20 19 18 17 17 18 18 18 18 18
20 20 19 19 19 19 19 19 19 19 18 18 18 18 17 17 17 17 17 17 17 17 17 17 17 16 17 18 18 18 19 20 20 19 18 17 18 17 17 18 18 18 18
20 20 19 18 18 19 18 18 18 18 18 17 17 17 17 16 16 16 17 17 16 17 16 16 16 16 16 17 17 17 18 19 19 19 19 18 17 17 17 18 18 18 18
20 20 19 19 18 17 17 17 17 17 16 16 16 16 16 16 15 15 16 16 16 16 16 16 15 16 16 16 16 16 16 16 16 16 17 17 17 17 17 17 17 18 18
19 19 19 19 19 17 17 17 17 16 16 16 16 17 17 16 17 17 15 15 15 15 15 15 15 16 16 16 16 16 16 15 16 16 16 17 17 17 17 17 17 17 18
18 19 20 19 17 17 17 16 16 16 15 16 16 16 17 17 17 16 16 16 16 16 15 15 14 15 15 15 16 15 15 15 15 15 15 16 17 16 17 17 18 18 17
17 17 17 17 17 16 15 16 15 14 14 15 15 16 16 16 15 15 15 14 14 14 14 14 14 15 15 14 15 15 14 14 14 15 15 16 16 16 17 17 17 17 17
15 16 16 16 16 15 14 15 15 15 17 17 16 16 15 14 13 13 13 13 13 13 12 13 13 13 13 14 13 14 14 13 13 14 14 14 15 16 16 17 17 17 17
14 14 15 15 15 15 15 15 15 15 16 16 16 16 15 14 14 13 12 12 12 12 12 12 12 12 13 12 13 13 12 13 13 13 14 15 15 15 15 16 16 16 16
14 13 14 15 15 14 13 14 14 14 15 15 15 15 16 14 15 14 13 11 11 11 12 11 12 12 12 12 12 11 11 11 11 11 12 13 15 14 13 14 15 16 16
13 13 13 13 13 14 13 13 13 14 14 13 14 14 15 15 14 15 14 11 10 9 10 10 11 11 11 11 11 11 11 11 11 11 11 12 11 14 12 12 13 14 15
12 11 11 13 12 12 12 13 12 12 12 12 13 13 13 13 13 13 14 14 12 10 8 9 9 10 10 10 10 10 10 10 10 11 11 11 11 10 11 13 11 12 13
11 11 11 10 10 11 11 12 12 11 11 11 11 12 13 13 12 12 13 13 12 12 9 8 8 8 8 8 8 9 9 10 10 9 8 9 10 10 10 9 10 10 11
10 9 9 9 9 10 9 9 10 9 10 10 9 11 10 11 12 11 12 13 12 11 10 8 8 7 7 7 7 6 7 7 8 8 7 8 8 9 9 10 10 10 10
9 8 9 8 9 7 8 7 7 6 6 7 8 9 9 10 10 8 8 11 11 10 9 9 7 7 5 5 6 5 6 6 6 6 6 6 7 7 7 8 7 7 8
7 7 6 7 7 7 6 7 6 7 5 5 6 7 8 8 9 7 8 10 10 9 9 9 8 6 5 6 7 7 6 6 5 5 5 5 5 5 5 5 6 6 6
6 6 6 6 6 6 7 6 5 5 5 5 5 6 6 7 6 6 6 9 9 9 8 7 7 7 6 5 5 7 7 9 6 5 4 4 4 4 4 4 4 4 5
5 6 5 5 5 5 5 7 6 4 3 2 4 5 4 6 6 5 6 6 8 8 7 7 6 6 7 6 5 6 6 7 9 6 4 4 3 3 3 3 3 3 3
4 4 4 4 4 3 5 6 5 3 2 2 3 4 4 5 5 5 6 6 5 6 7 6 5 6 5 6 5 5 5 6 8 9 6 4 3 2 2 2 3 2 2
3 3 3 3 2 3 3 4 4 4 2 1 1 2 3 3 4 4 5 5 5 4 5 5 5 5 5 4 5 5 4 5 6 7 7 6 5 2 2 2 2 2 2
Height
766 769 771 776 780 784 788 792 795 798 800 803 806 807 809 811 812 814 815 816 817 819 821 822 822 824 824 824 826 827 829 830 830 831 831 832 833 834 836 837 838 840 840
764 770 773 778 782 785 790 793 796 800 802 805 807 810 811 813 814 816 818 819 821 821 823 825 826 827 828 828 830 831 833 834 835 835 835 837 838 838 839 840 842 843 843
766 771 775 780 783 786 792 795 798 801 803 806 810 811 814 815 817 819 820 822 823 825 826 828 829 831 832 833 834 835 837 838 838 839 840 841 842 843 844 844 845 847 847
768 772 777 781 784 788 792 797 800 803 805 809 812 814 816 818 820 821 822 824 825 826 829 831 833 835 836 837 838 839 841 842 842 844 845 846 847 847 847 848 849 850 850
770 774 778 782 787 790 794 797 801 805 808 813 814 817 819 821 822 824 825 825 830 830 832 834 836 839 840 841 841 843 844 845 846 847 848 850 850 851 851 852 852 854 855
771 775 779 783 788 792 796 799 802 807 810 814 817 818 822 824 826 827 830 831 833 834 835 838 841 842 844 845 846 847 848 848 851 851 852 853 854 855 855 855 856 857 857
772 776 780 784 789 793 797 800 804 807 811 815 819 820 824 827 828 830 833 835 837 838 840 840 844 846 847 849 849 850 851 851 852 854 854 856 857 858 858 858 859 860 861
772 776 781 785 790 794 797 801 805 808 812 817 821 823 826 828 831 834 836 838 840 842 843 844 847 849 850 851 852 854 855 854 856 857 859 860 861 862 862 862 862 863 864
772 776 782 787 791 794 798 802 806 810 814 818 821 824 827 830 832 835 838 841 843 846 847 849 851 853 854 854 855 857 857 856 858 860 862 864 864 864 865 866 866 866 867
772 776 781 786 791 795 798 801 805 809 813 816 820 823 827 831 832 836 840 843 846 848 850 852 854 856 857 858 858 860 860 861 861 862 865 866 867 868 868 869 869 870 871
772 775 780 785 790 793 797 802 807 812 816 821 824 828 831 834 837 840 843 844 846 849 852 854 857 859 860 860 860 864 863 863 864 866 868 870 870 870 871 872 872 872 873
771 775 779 784 786 792 798 804 809 815 820 823 827 830 833 836 841 844 847 849 851 853 855 857 859 860 861 862 863 867 867 868 868 868 870 871 872 873 873 874 874 874 875
771 775 777 780 786 793 797 803 808 814 818 823 827 830 833 837 842 846 849 852 854 856 858 859 860 862 864 865 867 868 871 871 871 869 872 873 874 875 875 876 876 876 877
771 775 780 784 788 795 799 803 808 813 817 822 827 831 834 838 843 847 850 854 857 860 861 861 862 864 866 868 870 871 872 874 874 874 876 876 877 878 877 876 877 878 879
771 774 780 786 790 794 799 804 809 813 818 822 827 831 834 837 841 845 849 853 857 861 863 863 864 867 868 870 871 873 874 876 878 878 880 879 880 880 880 879 879 879 880
769 774 778 783 789 794 799 804 810 815 819 823 828 831 835 837 840 845 849 853 857 861 864 864 866 868 870 872 874 876 878 879 881 882 883 883 882 883 883 882 881 881 882
767 772 777 782 788 793 798 803 809 813 819 824 828 831 835 839 842 844 848 853 857 861 864 865 867 870 872 874 876 879 881 882 883 885 885 886 887 883 885 885 886 885 884
766 771 777 781 788 792 797 802 809 814 820 825 827 832 838 838 842 846 848 852 857 860 864 868 870 871 874 876 878 881 883 885 887 888 890 891 892 888 889 886 889 890 891
764 769 775 781 787 791 796 802 808 815 818 825 830 834 838 841 844 846 849 852 857 860 865 869 871 874 876 878 881 883 885 887 890 891 893 894 896 893 894 893 892 892 893
764 769 775 781 786 791 797 802 809 815 821 825 831 834 840 842 844 847 851 853 857 861 864 868 871 876 880 883 886 886 889 890 892 893 895 896 897 897 898 898 898 898 897
764 768 773 778 784 792 796 802 811 819 823 828 832 836 839 843 847 850 852 854 858 862 865 869 873 876 881 884 886 889 891 893 894 896 896 897 898 900 900 901 902 903 901
762 768 773 779 785 791 795 801 810 816 826 828 834 837 840 845 846 852 853 855 860 864 867 870 874 877 880 884 888 891 895 898 898 898 899 900 901 902 903 904 905 904 904
761 766 772 778 784 790 795 802 810 816 824 831 836 835 843 846 848 852 855 856 860 865 869 873 875 878 882 885 887 888 893 892 898 901 902 903 904 904 905 905 905 906 907
762 767 772 778 784 789 797 801 807 816 822 830 834 837 843 845 849 855 856 858 860 864 870 874 877 880 881 885 888 889 891 892 893 900 904 905 905 906 907 908 909 910 910
763 768 774 779 785 790 795 800 807 818 824 831 834 839 845 847 852 855 858 860 863 865 869 874 878 880 885 886 890 890 892 892 893 892 900 905 906 907 908 909 910 911 911
766 769 774 780 786 791 796 801 808 813 824 828 835 842 844 848 852 856 859 862 864 868 870 873 877 881 884 887 888 890 894 894 894 894 897 901 904 908 909 910 910 911 912
Wind_Speed
14 21 24 21 22 19 19 20 18 17 17 17 16 15 15 14 16 15 15 17 18 19 19 19 20 20 20 21 21 22 22 23 23 23 22 22 24 23 21 20 21 21 22
22 22 23 22 21 22 20 20 19 18 18 17 17 16 16 16 16 15 16 18 20 21 21 21 21 22 22 23 22 22 23 23 23 23 23 22 21 20 20 20 21 20 21
23 23 21 24 22 22 20 20 19 19 18 18 17 18 18 17 17 17 17 20 22 23 23 22 22 22 21 22 22 23 23 23 22 20 19 19 17 17 18 18 19 19 19
21 21 21 23 22 22 21 20 19 18 18 19 19 19 20 19 21 20 20 22 24 23 23 22 21 20 20 20 20 21 21 21 17 16 17 16 15 15 15 16 15 16 17
19 20 21 23 22 22 21 21 20 18 17 16 20 21 23 24 22 20 19 20 16 21 20 21 21 18 18 18 18 18 18 19 17 15 15 15 13 14 14 15 16 16 16
20 19 21 24 23 21 20 20 19 18 19 19 21 24 24 22 20 21 22 23 21 22 24 21 19 16 17 17 18 19 19 18 14 14 15 14 13 13 14 13 14 15 18
19 18 22 24 22 21 20 20 18 19 19 20 21 24 22 20 19 19 21 21 21 21 24 23 20 19 17 17 18 18 17 13 14 13 16 15 13 13 14 14 15 15 16
20 22 21 23 21 22 21 20 19 20 21 22 22 22 22 20 21 21 21 21 21 22 23 23 21 20 19 18 18 18 17 15 16 14 17 14 14 14 13 13 14 15 15
21 22 22 21 21 21 22 22 22 22 25 24 24 24 26 27 27 23 20 19 19 20 22 22 21 20 18 18 18 17 16 19 15 14 17 14 14 14 13 12 12 13 14
22 23 25 23 23 23 26 28 28 30 31 34 34 35 32 28 28 27 28 22 22 20 19 19 19 18 18 21 20 15 17 19 17 18 16 13 13 12 11 11 10 11 12
21 24 27 27 26 28 34 32 32 30 31 31 28 25 25 23 20 20 22 24 24 22 20 17 13 14 14 18 20 19 22 25 26 25 19 12 13 13 11 10 10 9 10
21 24 28 29 33 37 38 34 34 35 25 26 22 22 20 19 17 15 14 14 15 14 12 12 15 17 14 15 15 16 22 25 25 27 27 16 12 11 10 9 8 8 10
24 22 25 33 39 40 37 37 33 25 24 23 21 19 21 19 15 14 12 11 11 11 10 10 14 13 14 16 15 17 20 21 23 24 26 22 22 9 9 6 7 7 8
23 26 26 34 37 29 28 31 30 28 27 26 22 19 18 17 14 12 11 10 8 8 8 10 15 17 16 16 17 16 17 18 21 20 20 21 20 22 7 7 5 6 8
26 30 32 28 30 30 29 29 27 25 26 25 22 19 20 18 16 15 14 12 11 10 10 13 16 17 18 18 18 18 19 18 17 18 18 18 23 30 26 17 7 6 7
28 31 35 37 37 32 26 30 27 23 25 24 22 21 17 20 20 17 15 13 13 12 12 11 17 18 19 18 19 19 19 19 18 18 18 17 21 26 30 32 28 18 7
29 31 32 37 35 33 34 31 29 27 26 23 22 22 20 19 18 17 17 16 13 12 15 13 17 18 19 18 18 17 16 17 17 17 19 18 20 24 28 31 30 25 31
30 32 35 35 33 33 32 32 29 27 26 24 25 22 20 20 19 18 15 14 14 14 15 15 13 17 17 16 15 14 13 13 13 13 14 16 18 21 23 26 29 30 29
30 31 33 31 33 35 34 34 31 29 27 24 21 21 20 18 17 16 16 14 13 14 15 14 13 12 13 14 14 13 11 10 10 11 11 12 13 16 18 25 28 29 30
29 32 33 32 33 33 34 33 30 27 26 24 22 21 19 18 19 17 17 16 15 15 15 16 18 16 13 13 12 13 11 10 8 8 8 8 9 9 10 11 13 20 22
28 30 34 36 32 35 35 32 29 27 22 22 19 20 20 18 16 15 16 17 16 15 16 15 18 17 16 14 10 14 13 10 9 8 7 6 6 7 6 7 8 11 13
27 30 31 34 37 33 32 30 29 31 23 21 20 19 17 17 17 14 16 18 17 17 17 17 17 17 15 11 6 4 2 3 8 9 8 9 9 8 8 7 7 9 10
27 31 32 32 33 32 32 32 31 28 27 23 19 21 16 15 14 13 14 19 19 16 16 16 14 12 11 6 9 4 2 1 8 5 8 8 8 8 8 10 10 11 10
22 28 31 32 31 34 34 33 35 26 25 16 23 22 18 17 14 13 14 15 19 18 17 15 11 8 7 9 6 3 4 5 1 3 4 6 7 8 9 9 9 11 12
23 26 28 30 30 30 33 33 33 28 22 28 24 22 19 17 15 14 14 14 15 19 18 14 11 8 5 8 4 5 4 4 4 3 3 5 6 6 7 8 8 9 9
22 25 27 28 27 28 29 32 31 34 30 29 25 23 19 19 16 14 14 14 15 15 15 14 10 8 6 6 4 5 3 2 2 3 5 9 9 4 5 6 7 7 8
Wind_Direction
159 162 156 157 157 156 155 156 154 147 143 140 136 130 127 125 122 121 125 123 116 107 103 99 97 97 102 105 106 104 106 102 98 93 93 98 98 96 96 97 98 98 100
155 159 155 156 156 154 156 160 154 148 146 143 135 129 127 123 120 121 121 118 116 108 102 98 94 93 93 96 101 106 105 101 97 93 86 90 99 98 104 104 102 103 100
154 157 155 156 157 156 159 159 153 152 149 139 137 129 124 124 122 116 116 115 109 101 99 98 95 93 93 95 100 106 106 101 98 90 88 84 87 95 99 100 100 101 97
152 155 158 160 160 158 160 158 152 152 147 145 138 132 123 119 116 115 116 110 114 108 98 93 94 93 91 98 102 105 105 99 87 95 92 89 85 93 95 97 100 98 101
152 154 161 160 162 159 158 157 152 151 146 145 139 132 122 114 107 104 109 112 132 124 113 103 95 89 92 95 99 102 100 89 82 86 87 90 89 86 93 96 100 102 105
148 153 167 163 163 161 158 158 155 151 148 145 139 132 125 114 107 109 109 113 114 121 117 109 107 102 96 97 99 100 97 93 88 88 89 89 94 94 93 106 115 113 105
152 153 157 162 162 161 161 159 157 152 150 149 143 134 126 114 106 111 117 114 111 112 112 112 109 106 101 104 103 102 97 84 95 82 89 89 91 97 89 95 109 109 109
152 150 154 162 162 160 161 160 159 156 153 147 142 136 129 118 109 106 113 113 109 106 105 105 105 99 100 103 102 102 96 89 83 88 85 83 99 90 98 93 106 105 106
154 152 153 153 157 159 156 153 150 148 145 140 138 129 123 117 111 107 111 111 108 106 106 105 102 99 98 102 102 105 101 96 81 71 83 77 77 86 90 99 98 109 115
155 157 155 153 149 146 149 149 151 147 147 144 141 136 130 125 122 114 103 106 104 107 113 112 110 111 99 93 90 95 98 90 91 73 72 75 83 77 88 95 101 107 112
160 160 157 153 149 145 146 151 147 146 139 133 126 126 128 119 122 124 120 120 118 118 120 121 124 115 111 99 90 84 93 87 87 77 69 74 74 73 96 87 96 105 114
156 159 158 153 149 148 146 141 140 134 129 127 125 129 124 127 126 128 133 130 121 121 111 120 125 113 110 106 100 98 87 88 88 82 68 64 60 69 74 91 96 105 113
158 146 148 157 151 149 143 148 144 141 137 138 136 135 134 133 134 134 136 128 126 117 120 126 123 123 120 113 115 109 95 90 87 88 77 74 65 63 65 71 96 109 127
151 150 142 148 149 149 150 153 151 147 148 150 146 142 142 139 134 132 136 133 120 106 115 131 124 121 116 118 112 112 112 104 89 86 92 81 74 56 71 65 91 112 126
161 158 153 149 150 153 156 156 153 148 149 150 149 150 143 137 135 135 131 127 122 121 121 137 129 121 116 110 105 105 99 96 94 87 85 95 84 70 56 67 84 112 134
167 169 163 163 163 160 155 159 155 149 151 152 150 148 150 142 137 137 133 125 118 122 122 140 134 129 122 118 112 103 96 91 86 81 77 86 106 91 66 60 61 70 115
172 170 170 169 167 167 158 162 157 159 158 150 146 145 147 142 137 138 138 133 125 124 126 131 138 133 128 122 114 108 102 93 87 80 74 75 79 107 87 70 65 64 58
170 170 171 170 169 167 163 159 159 150 157 155 154 151 151 143 140 139 137 140 139 133 131 126 135 136 131 125 117 109 103 97 88 82 76 71 69 70 87 99 79 70 61
174 169 168 168 169 167 164 160 157 158 156 147 149 150 152 148 141 137 138 142 149 148 139 131 126 138 128 123 118 111 103 100 90 77 64 63 67 72 78 83 94 86 76
171 172 167 168 168 164 161 154 150 148 147 152 149 148 154 150 147 145 145 146 153 155 150 147 140 125 119 108 99 86 77 77 73 71 64 45 46 61 72 77 75 78 88
168 168 169 167 163 165 156 149 149 138 143 137 151 153 151 153 151 143 145 147 152 154 154 154 143 136 122 124 106 90 72 72 73 66 61 54 46 41 53 59 48 52 52
160 165 164 169 170 167 161 157 154 155 152 147 146 150 149 155 153 155 146 148 153 156 155 155 159 146 138 140 120 109 124 96 62 64 67 64 59 56 56 56 60 58 55
158 167 168 169 164 168 167 162 154 146 144 146 150 142 146 155 149 149 152 152 154 158 156 159 159 151 154 146 148 125 143 135 132 70 63 69 67 63 59 52 57 65 65
156 166 170 171 166 169 171 167 165 157 146 153 157 152 152 146 147 152 147 147 156 157 160 159 159 157 157 160 144 105 125 114 189 137 91 77 77 73 68 66 62 66 69
149 156 160 163 171 166 172 172 162 155 157 158 147 145 149 146 150 151 152 150 147 155 161 162 163 152 159 155 150 128 97 99 89 111 138 138 86 72 78 78 73 66 67
138 148 157 161 158 168 163 167 166 167 159 152 153 156 146 146 145 147 150 155 153 149 156 160 161 160 144 148 141 117 130 61 112 75 91 150 129 97 83 78 76 76 69